DLH22 EDDM-EDDF

Flight info

Callsign DLH22
Flight time 0h 33m
Altitude 22000
Route GIVMI6Q GIVMI Y101 ERNAS T161 DEBHI DEBHI1B
Aircraft A321/M-SDE3FGHIRWY/LB1

Departure

Time 2026-04-17 11:59
Airport Munich Airport (EDDM)

Arrival

Time 2026-04-17 12:32
Airport Frankfurt Main Airport (EDDF)
Time Latitude Longitude Altitude Speed Heading
2026-04-17 11:39 48.35730 11.79259 1460 ft 0 kts 263°
2026-04-17 11:49 48.35732 11.79285 1459 ft 4 kts 263°
2026-04-17 11:49 48.35735 11.79325 1460 ft 4 kts 265°
2026-04-17 11:49 48.35735 11.79365 1460 ft 4 kts 279°
2026-04-17 11:50 48.35727 11.79400 1464 ft 4 kts 322°
2026-04-17 11:50 48.35717 11.79408 1457 ft 0 kts 355°
2026-04-17 11:54 48.35741 11.79406 1462 ft 9 kts 355°
2026-04-17 11:54 48.35830 11.79390 1466 ft 15 kts 352°
2026-04-17 11:55 48.35923 11.79352 1460 ft 13 kts 338°
2026-04-17 11:55 48.36011 11.79333 1467 ft 13 kts 355°
2026-04-17 11:55 48.36087 11.79275 1458 ft 12 kts 286°
2026-04-17 11:55 48.36077 11.79145 1459 ft 13 kts 263°
2026-04-17 11:56 48.36064 11.78975 1460 ft 20 kts 263°
2026-04-17 11:56 48.36046 11.78731 1465 ft 27 kts 263°
2026-04-17 11:56 48.36023 11.78422 1460 ft 31 kts 263°
2026-04-17 11:56 48.35997 11.78099 1467 ft 31 kts 263°
2026-04-17 11:57 48.35976 11.77817 1460 ft 15 kts 263°
2026-04-17 11:57 48.35997 11.77672 1456 ft 16 kts 329°
2026-04-17 11:57 48.36130 11.77681 1467 ft 23 kts 34°
2026-04-17 11:57 48.36246 11.77904 1462 ft 32 kts 53°
2026-04-17 11:58 48.36389 11.78222 1461 ft 48 kts 68°
2026-04-17 11:58 48.36450 11.78845 1467 ft 85 kts 84°
2026-04-17 11:58 48.36539 11.80056 1458 ft 145 kts 84°
2026-04-17 11:58 48.36661 11.81756 1742 ft 169 kts 84°
2026-04-17 11:59 48.36777 11.83462 2608 ft 161 kts 84°
2026-04-17 11:59 48.36976 11.85125 3211 ft 165 kts 71°
2026-04-17 11:59 48.37660 11.86597 3594 ft 185 kts 39°
2026-04-17 11:59 48.38900 11.87281 3935 ft 204 kts
2026-04-17 12:00 48.40347 11.86851 4273 ft 223 kts 346°
2026-04-17 12:00 48.41829 11.85969 4693 ft 238 kts 332°
2026-04-17 12:00 48.43175 11.84281 4986 ft 264 kts 313°
2026-04-17 12:00 48.44384 11.82114 5462 ft 280 kts 310°
2026-04-17 12:01 48.45625 11.79815 6162 ft 285 kts 310°
2026-04-17 12:01 48.46895 11.77511 6960 ft 285 kts 311°
2026-04-17 12:01 48.48193 11.75233 7728 ft 286 kts 312°
2026-04-17 12:01 48.49495 11.72971 8549 ft 285 kts 312°
2026-04-17 12:02 48.50794 11.70716 9340 ft 285 kts 312°
2026-04-17 12:02 48.52097 11.68447 10090 ft 286 kts 312°
2026-04-17 12:02 48.53399 11.66161 10757 ft 288 kts 312°
2026-04-17 12:02 48.54705 11.63857 11447 ft 289 kts 311°
2026-04-17 12:03 48.56014 11.61540 12126 ft 291 kts 311°
2026-04-17 12:03 48.57330 11.59206 12798 ft 294 kts 311°
2026-04-17 12:03 48.58700 11.56779 12982 ft 314 kts 311°
2026-04-17 12:03 48.60141 11.54228 13110 ft 333 kts 311°
2026-04-17 12:04 48.61703 11.51457 13277 ft 350 kts 311°
2026-04-17 12:04 48.63299 11.48626 13740 ft 356 kts 311°
2026-04-17 12:04 48.64895 11.45793 14291 ft 359 kts 311°
2026-04-17 12:04 48.66518 11.42904 14837 ft 361 kts 311°
2026-04-17 12:05 48.68152 11.39989 15398 ft 363 kts 311°
2026-04-17 12:05 48.69836 11.37130 15910 ft 365 kts 316°
2026-04-17 12:05 48.71829 11.34729 16413 ft 368 kts 326°
2026-04-17 12:05 48.73973 11.32584 16950 ft 370 kts 326°
2026-04-17 12:06 48.76128 11.30422 17506 ft 372 kts 326°
2026-04-17 12:06 48.78291 11.28238 18039 ft 374 kts 326°
2026-04-17 12:06 48.80427 11.26066 18538 ft 375 kts 326°
2026-04-17 12:06 48.82600 11.23848 18964 ft 377 kts 326°
2026-04-17 12:07 48.84747 11.21527 19381 ft 380 kts 320°
2026-04-17 12:07 48.86711 11.18836 19796 ft 382 kts 317°
2026-04-17 12:07 48.88674 11.16101 20218 ft 384 kts 317°
2026-04-17 12:07 48.90651 11.13346 20649 ft 386 kts 318°
2026-04-17 12:08 48.92638 11.10577 21057 ft 388 kts 318°
2026-04-17 12:08 48.94633 11.07793 21474 ft 390 kts 318°
2026-04-17 12:08 48.96638 11.04993 21887 ft 392 kts 318°
2026-04-17 12:08 48.98658 11.02171 22183 ft 395 kts 317°
2026-04-17 12:09 49.00695 10.99320 22245 ft 400 kts 317°
2026-04-17 12:09 49.02754 10.96435 22268 ft 402 kts 317°
2026-04-17 12:09 49.04785 10.93578 22270 ft 403 kts 317°
2026-04-17 12:09 49.06871 10.90638 22264 ft 403 kts 317°
2026-04-17 12:10 49.08930 10.87732 22263 ft 403 kts 317°
2026-04-17 12:10 49.10963 10.84859 22263 ft 403 kts 317°
2026-04-17 12:10 49.13021 10.81952 22280 ft 403 kts 317°
2026-04-17 12:10 49.15081 10.79037 22281 ft 403 kts 317°
2026-04-17 12:11 49.17163 10.76085 22281 ft 403 kts 317°
2026-04-17 12:11 49.19194 10.73203 22276 ft 403 kts 317°
2026-04-17 12:11 49.21221 10.70245 22275 ft 403 kts 316°
2026-04-17 12:12 49.25145 10.64089 22228 ft 404 kts 314°
2026-04-17 12:12 49.27076 10.60966 22239 ft 404 kts 314°
2026-04-17 12:12 49.29009 10.57848 22240 ft 404 kts 314°
2026-04-17 12:12 49.30949 10.54737 22239 ft 404 kts 314°
2026-04-17 12:13 49.32896 10.51634 22237 ft 404 kts 314°
2026-04-17 12:13 49.34851 10.48534 22239 ft 404 kts 314°
2026-04-17 12:13 49.36692 10.45304 22096 ft 396 kts 307°
2026-04-17 12:13 49.38258 10.41904 21828 ft 387 kts 306°
2026-04-17 12:14 49.39792 10.38533 21566 ft 384 kts 305°
2026-04-17 12:14 49.41319 10.35174 21316 ft 382 kts 305°
2026-04-17 12:14 49.42839 10.31833 21060 ft 381 kts 305°
2026-04-17 12:14 49.44355 10.28501 20814 ft 381 kts 305°
2026-04-17 12:15 49.45850 10.25212 20568 ft 379 kts 305°
2026-04-17 12:15 49.47360 10.21891 20320 ft 378 kts 305°
2026-04-17 12:15 49.48866 10.18576 20076 ft 377 kts 305°
2026-04-17 12:15 49.50366 10.15260 19831 ft 376 kts 305°
2026-04-17 12:16 49.51857 10.11956 19592 ft 375 kts 305°
2026-04-17 12:16 49.53343 10.08671 19358 ft 373 kts 305°
2026-04-17 12:16 49.54824 10.05395 19116 ft 372 kts 305°
2026-04-17 12:16 49.56296 10.02128 18885 ft 370 kts 305°
2026-04-17 12:17 49.57896 9.99033 18658 ft 369 kts 312°
2026-04-17 12:17 49.59620 9.96108 18401 ft 368 kts 312°
2026-04-17 12:17 49.61351 9.93207 18130 ft 367 kts 313°
2026-04-17 12:17 49.63062 9.90351 17862 ft 367 kts 313°
2026-04-17 12:18 49.64794 9.87459 17597 ft 366 kts 312°
2026-04-17 12:18 49.66517 9.84574 17329 ft 365 kts 312°
2026-04-17 12:18 49.68233 9.81691 17068 ft 364 kts 312°
2026-04-17 12:18 49.69940 9.78814 16821 ft 363 kts 312°
2026-04-17 12:19 49.71646 9.75935 16559 ft 362 kts 312°
2026-04-17 12:19 49.73342 9.73070 16301 ft 361 kts 312°
2026-04-17 12:19 49.75035 9.70211 16050 ft 359 kts 312°
2026-04-17 12:19 49.76702 9.67396 15798 ft 357 kts 312°
2026-04-17 12:20 49.78363 9.64588 15319 ft 351 kts 312°
2026-04-17 12:20 49.80001 9.61809 14863 ft 346 kts 312°
2026-04-17 12:20 49.81610 9.59070 14434 ft 340 kts 312°
2026-04-17 12:20 49.83199 9.56357 13687 ft 343 kts 312°
2026-04-17 12:21 49.84264 9.54539 13209 ft 344 kts 311°
2026-04-17 12:21 49.85873 9.51792 12560 ft 343 kts 311°
2026-04-17 12:21 49.87472 9.49060 11959 ft 341 kts 311°
2026-04-17 12:21 49.89063 9.46340 11384 ft 339 kts 311°
2026-04-17 12:22 49.90640 9.43642 10840 ft 336 kts 311°
2026-04-17 12:22 49.92206 9.40960 10277 ft 334 kts 311°
2026-04-17 12:22 49.93745 9.38322 10035 ft 322 kts 311°
2026-04-17 12:22 49.95217 9.35801 9906 ft 307 kts 311°
2026-04-17 12:23 49.96566 9.33372 9765 ft 293 kts 304°
2026-04-17 12:23 49.97628 9.30740 9539 ft 284 kts 300°
2026-04-17 12:23 49.98614 9.28102 9181 ft 281 kts 299°
2026-04-17 12:23 49.99589 9.25477 8783 ft 280 kts 299°
2026-04-17 12:24 50.00561 9.22858 8393 ft 279 kts 299°
2026-04-17 12:24 50.01527 9.20250 8036 ft 277 kts 299°
2026-04-17 12:24 50.02476 9.17689 7749 ft 272 kts 299°
2026-04-17 12:24 50.03426 9.15126 7300 ft 275 kts 299°
2026-04-17 12:25 50.04387 9.12553 6874 ft 275 kts 298°
2026-04-17 12:25 50.05353 9.09990 6483 ft 274 kts 299°
2026-04-17 12:25 50.06321 9.07430 6100 ft 273 kts 299°
2026-04-17 12:25 50.07283 9.04894 5753 ft 271 kts 299°
2026-04-17 12:26 50.08238 9.02387 5404 ft 268 kts 299°
2026-04-17 12:26 50.09138 8.99890 5047 ft 266 kts 290°
2026-04-17 12:26 50.09720 8.97177 4680 ft 263 kts 284°
2026-04-17 12:26 50.10223 8.94440 4357 ft 260 kts 284°
2026-04-17 12:27 50.10701 8.91779 4210 ft 250 kts 284°
2026-04-17 12:27 50.10983 8.89185 4093 ft 236 kts 266°
2026-04-17 12:27 50.10662 8.86787 4014 ft 218 kts 248°
2026-04-17 12:27 50.10153 8.84638 3808 ft 210 kts 249°
2026-04-17 12:28 50.09655 8.82521 3550 ft 207 kts 249°
2026-04-17 12:28 50.09160 8.80417 3279 ft 207 kts 249°
2026-04-17 12:28 50.08664 8.78315 3016 ft 206 kts 249°
2026-04-17 12:28 50.08171 8.76227 2737 ft 204 kts 249°
2026-04-17 12:29 50.07682 8.74160 2458 ft 204 kts 249°
2026-04-17 12:29 50.07195 8.72102 2203 ft 196 kts 249°
2026-04-17 12:29 50.06747 8.70207 1940 ft 177 kts 249°
2026-04-17 12:29 50.06343 8.68503 1711 ft 161 kts 249°
2026-04-17 12:30 50.05968 8.66919 1498 ft 150 kts 249°
2026-04-17 12:30 50.05616 8.65438 1307 ft 146 kts 249°
2026-04-17 12:30 50.05266 8.63964 1117 ft 144 kts 249°
2026-04-17 12:30 50.04916 8.62490 926 ft 146 kts 250°
2026-04-17 12:31 50.04564 8.61014 731 ft 146 kts 250°
2026-04-17 12:31 50.04211 8.59529 538 ft 146 kts 249°
2026-04-17 12:31 50.03856 8.58054 359 ft 144 kts 250°
2026-04-17 12:31 50.03556 8.56781 349 ft 102 kts 250°
2026-04-17 12:32 50.03378 8.56027 350 ft 46 kts 250°
2026-04-17 12:32 50.03308 8.55610 346 ft 35 kts 271°
2026-04-17 12:32 50.03324 8.55408 349 ft 10 kts 278°
2026-04-17 12:32 50.03335 8.55300 351 ft 11 kts 278°
2026-04-17 12:33 50.03358 8.55189 351 ft 9 kts 329°
2026-04-17 12:33 50.03404 8.55206 346 ft 8 kts 22°
2026-04-17 12:33 50.03450 8.55302 355 ft 14 kts 68°
2026-04-17 12:33 50.03487 8.55455 349 ft 16 kts 69°
2026-04-17 12:34 50.03528 8.55621 349 ft 17 kts 70°
2026-04-17 12:34 50.03570 8.55799 353 ft 18 kts 70°
2026-04-17 12:34 50.03615 8.55990 353 ft 19 kts 69°
2026-04-17 12:34 50.03663 8.56188 346 ft 20 kts 69°
2026-04-17 12:35 50.03714 8.56400 351 ft 21 kts 69°
2026-04-17 12:35 50.03767 8.56622 351 ft 22 kts 69°
2026-04-17 12:35 50.03822 8.56853 353 ft 23 kts 70°
2026-04-17 12:35 50.03880 8.57094 348 ft 24 kts 69°
2026-04-17 12:37 50.04338 8.59003 348 ft 29 kts 69°
2026-04-17 12:37 50.04408 8.59293 352 ft 17 kts 70°
2026-04-17 12:38 50.04439 8.59424 348 ft 13 kts 66°
2026-04-17 12:38 50.04522 8.59472 347 ft 14 kts 355°
2026-04-17 12:38 50.04554 8.59469 347 ft 0 kts 357°
2026-04-17 12:39 50.04584 8.59466 349 ft 11 kts 357°
2026-04-17 12:40 50.04702 8.59440 355 ft 19 kts 345°
2026-04-17 12:40 50.04775 8.59400 350 ft 6 kts 339°
2026-04-17 12:40 50.04776 8.59399 350 ft 0 kts 339°
2026-04-17 12:41 50.04782 8.59396 355 ft 2 kts 339°
2026-04-17 12:41 50.04810 8.59378 349 ft 8 kts 335°
2026-04-17 12:41 50.04846 8.59320 355 ft 8 kts 306°
2026-04-17 12:42 50.04898 8.59275 355 ft 9 kts 340°
2026-04-17 12:42 50.04924 8.59260 353 ft 1 kts 340°
2026-04-17 12:42 50.04931 8.59256 350 ft 0 kts 340°